[[{"header":{"parameterUnit":"m.s-1","parameterCategory":1,"la1":30.2991,"la2":30.254,"lo1":-89.0895,"lo2":-89.0444,"dy":0.0017,"dx":0.0017,"nx":28,"ny":28,"refTime":"2024-09-28T09:00:00:Z","depth":0,"parameterNumber":2,"parameterNumberName":"U-component_of_WINDS"},"data":[0,0,0,0,0,0,0,0,0,0,0,0,0,0,0,0,0,0,0,0,0,0,0,0,0,0,0,0,0,0,0,0,0,0,0,0,0,0,0,0,0,0,0,0,0,0,0,0,0,0,0,0,0,0,0,0,0,0,5.348,5.348,0,5.3483,5.3483,5.3483,5.3441,5.344,5.3439,5.3438,5.3441,5.3443,5.3444,0,0,0,0,0,0,0,0,0,0,0,0,0,5.3439,5.344,5.348,5.348,5.348,5.3483,5.3483,5.3483,5.3442,5.344,5.3439,5.3437,5.3441,5.3442,5.3444,0,0,0,0,0,0,0,0,0,0,0,0,0,5.3451,5.344,5.348,5.346,5.3458,5.3483,5.3483,5.3483,5.3442,5.344,5.3438,5.3437,5.3441,5.3442,5.3444,5.3489,0,0,5.3449,5.345,0,0,0,0,0,0,0,0,5.345,5.3452,5.3462,5.3461,5.3459,5.346,5.347,5.3485,5.3442,5.3448,5.3438,5.3436,5.3449,5.345,5.3454,5.3489,5.3489,5.3449,5.3451,5.3451,5.3452,0,0,0,0,0,0,0,5.3449,5.3452,5.3481,5.3463,5.3461,5.3451,5.345,5.3472,5.3458,5.3447,5.3444,5.3445,5.3448,5.3453,5.3454,5.3489,5.3449,5.3451,5.3452,5.3453,5.3562,5.3563,0,0,0,0,0,0,5.3451,5.3451,5.3481,5.3481,5.345,5.3453,5.3452,5.3461,5.3458,5.3455,5.3447,5.3443,5.3451,5.3452,5.3454,5.3506,5.3451,5.3453,5.3454,5.356,5.3562,5.3564,0,0,0,0,0,0,5.345,5.3454,5.3481,5.3465,5.3468,5.3455,5.3466,5.3462,5.3467,5.3457,5.3454,5.3454,5.3449,5.3452,5.3481,5.3506,5.3454,5.3455,5.3558,5.356,5.3563,5.3611,0,0,0,0,0,0,5.3449,5.3454,5.3471,5.3466,5.3469,5.3507,5.3467,5.3464,5.347,5.3466,5.3464,5.3462,5.3448,5.3478,5.3482,5.3507,5.3457,5.3555,5.3559,5.3562,5.3607,5.3615,5.3622,0,0,0,0,0,5.3448,5.3484,5.3472,5.3475,5.3489,5.3509,5.351,5.3494,5.3473,5.3489,5.3483,5.3462,5.3503,5.3482,5.3486,5.3511,5.3554,5.3558,5.3562,5.3603,5.3613,5.3621,0,0,0,0,0,0,5.3491,5.3483,5.3469,5.3505,5.3508,5.3501,5.3522,5.3505,5.3514,5.3509,5.3489,5.3489,5.3521,5.352,5.3496,5.3555,5.3524,5.353,5.3555,5.3564,5.3571,5.357,5.3458,0,0,0,0,0,5.3505,5.3521,5.3513,5.3545,5.3547,5.3535,5.3542,5.353,5.3532,5.3533,5.3529,5.3532,5.3546,5.3555,5.3567,5.3607,5.3606,5.3627,5.3634,5.3641,5.3645,5.3666,5.3675,5.3578,5.3578,5.3578,0,0,5.3533,5.353,5.3542,5.3554,5.3554,5.3572,5.3536,5.3555,5.3568,5.3536,5.3563,5.356,5.3563,5.3597,5.3613,5.3597,5.3672,5.3646,5.3651,5.3652,5.3671,5.368,5.3689,5.3581,5.358,5.358,0,0,5.3593,5.3593,5.3619,5.3621,5.3623,5.3615,5.3622,5.3619,5.3615,5.3642,5.3619,5.3634,5.3658,5.3661,5.3665,5.3728,5.3709,5.3733,5.3771,5.3792,5.3799,5.3806,5.3828,5.3836,5.3738,5.3738,5.3738,0,5.3627,5.3652,5.3635,5.3657,5.3662,5.3635,5.3662,5.3665,5.3671,5.3676,5.3659,5.3689,5.3688,5.3723,5.3739,5.3744,5.3751,5.3732,5.38,5.3806,5.3812,5.3833,5.3841,5.3741,5.374,5.374,5.374,0,5.3694,5.3712,5.3733,5.374,5.3749,5.3773,5.376,5.3771,5.3759,5.3752,5.378,5.378,5.3791,5.3799,5.3787,5.3833,5.3823,5.3803,5.3772,5.3825,5.3844,5.3851,5.3745,5.3744,5.3743,5.3742,0,0,5.3778,5.3777,5.3785,5.3788,5.3789,5.3803,5.3826,5.3838,5.3847,5.3853,5.3872,5.3894,5.3876,5.3881,5.387,5.3888,5.3938,5.3866,5.3866,5.3879,5.3988,5.4002,5.4011,5.3926,5.3928,5.3929,5.3988,0,5.3836,5.3875,5.3862,5.3902,5.3918,5.3894,5.3914,5.3918,5.3913,5.3926,5.3922,5.3937,5.3913,5.3916,5.3933,5.3928,5.3959,5.3924,5.3943,5.3944,5.3941,5.4021,5.4035,5.4091,5.3995,5.3996,5.3997,0,5.3907,5.3916,5.3958,5.3957,5.3964,5.3982,5.3992,5.4006,5.4009,5.4005,5.4012,5.3996,5.402,5.399,5.4022,5.3998,5.4006,5.4005,5.4006,5.4006,5.3972,5.4022,5.4108,5.4116,5.4009,5.4008,5.4007,0,5.3964,5.3986,5.4014,5.4018,5.4018,5.4032,5.4032,5.4034,5.4042,5.4052,5.4056,5.4068,5.4074,5.4084,5.4073,5.4052,5.4107,5.4076,5.4103,5.4103,5.4113,5.4113,5.4201,5.4121,5.4121,5.4121,5.4121,0,5.4028,5.4054,5.404,5.4057,5.4086,5.4071,5.41,5.4098,5.4101,5.4117,5.4098,5.4113,5.4098,5.4113,5.4105,5.4132,5.4135,5.4132,5.4129,5.4133,5.4133,5.4136,5.4131,5.4123,5.4123,5.4122,5.4122,0,5.4095,5.4086,5.4115,5.4113,5.4113,5.4135,5.4133,5.4149,5.4144,5.4165,5.417,5.4161,5.4178,5.4168,5.4185,5.4179,5.4215,5.4208,5.4213,5.4211,5.4238,5.4235,5.433,5.4341,5.4256,5.4257,5.4257,0,5.4135,5.4155,5.4156,5.4166,5.4168,5.4184,5.4192,5.4179,5.4189,5.4195,5.421,5.4225,5.4236,5.4264,5.4259,5.4273,5.4264,5.4297,5.4266,5.4269,5.4263,5.4262,5.4263,5.4302,5.4303,5.4304,5.4305,0,5.4208,5.4204,5.4216,5.4228,5.4239,5.4247,5.4254,5.4263,5.425,5.4262,5.4279,5.4288,5.4305,5.432,5.4332,5.4333,5.4317,5.4315,5.4322,5.4324,5.4326,5.4325,5.4229,5.4312,5.4311,5.4311,5.431,5.431,5.4262,5.4279,5.4282,5.4297,5.4301,5.4309,5.4323,5.4321,5.4334,5.4347,5.434,5.4359,5.4364,5.4377,5.4381,5.4396,5.4383,5.4393,5.4395,5.4397,5.44,5.4326,5.4398,5.4398,5.4398,5.4398,5.4397,0,5.4333,5.4334,5.4349,5.4359,5.4371,5.4357,5.4364,5.4375,5.4392,5.4398,5.4409,5.4429,5.4444,5.4442,5.4455,5.4468,5.4461,5.4472,5.447,5.447,5.4412,5.4404,5.4477,5.4477,5.4477,5.4477,5.4477,5.4477,5.4371,5.4398,5.4394,5.4423,5.4425,5.4444,5.4449,5.4456,5.446,5.4483,5.4495,5.4494,5.4496,5.451,5.4523,5.4522,5.4528,5.4541,5.4537,5.4482,5.4474,5.4467,5.4459,5.4543,5.4543,5.4594,5.4594,5.4595]},{"header":{"parameterUnit":"m.s-1","parameterCategory":1,"la1":30.2991,"la2":30.254,"lo1":-89.0895,"lo2":-89.0444,"dy":0.0017,"dx":0.0017,"nx":28,"ny":28,"refTime":"2024-09-28T09:00:00:Z","depth":0,"parameterNumber":3,"parameterNumberName":"V-component_of_WINDS"},"data":[0,0,0,0,0,0,0,0,0,0,0,0,0,0,0,0,0,0,0,0,0,0,0,0,0,0,0,0,0,0,0,0,0,0,0,0,0,0,0,0,0,0,0,0,0,0,0,0,0,0,0,0,0,0,0,0,0,0,2.0839,2.084,0,2.0978,2.0979,2.0981,2.104,2.1039,2.1039,2.1039,2.1181,2.1185,2.1189,0,0,0,0,0,0,0,0,0,0,0,0,0,2.0624,2.0628,2.0839,2.0841,2.0842,2.0977,2.0979,2.0981,2.104,2.1039,2.1039,2.1039,2.118,2.1184,2.1189,0,0,0,0,0,0,0,0,0,0,0,0,0,2.0736,2.0629,2.0839,2.0888,2.0894,2.0977,2.0979,2.0982,2.104,2.1039,2.1039,2.1039,2.1178,2.1184,2.119,2.1235,0,0,2.1208,2.1211,0,0,0,0,0,0,0,0,2.0729,2.0743,2.0879,2.0885,2.0891,2.0991,2.0956,2.1067,2.104,2.0984,2.1039,2.1038,2.1118,2.1129,2.1156,2.1241,2.1248,2.1209,2.1213,2.1215,2.1217,0,0,0,0,0,0,0,2.0721,2.0738,2.0894,2.0881,2.0888,2.0903,2.0918,2.0977,2.1052,2.0989,2.0994,2.1009,2.1121,2.115,2.116,2.125,2.1209,2.1214,2.1218,2.122,2.1378,2.1379,0,0,0,0,0,0,2.0706,2.0731,2.0889,2.0898,2.0808,2.0907,2.0924,2.0959,2.1051,2.1065,2.1009,2.1011,2.114,2.1153,2.1165,2.1223,2.1215,2.1221,2.1224,2.1378,2.1379,2.1379,0,0,0,0,0,0,2.0701,2.0719,2.0884,2.0816,2.0838,2.0911,2.095,2.0962,2.0991,2.1067,2.108,2.1025,2.114,2.1156,2.1217,2.1229,2.1223,2.1229,2.1377,2.1378,2.1379,2.134,0,0,0,0,0,0,2.0694,2.0717,2.0735,2.0816,2.0841,2.0933,2.0951,2.0965,2.1001,2.1005,2.1085,2.1097,2.1141,2.1207,2.1223,2.1237,2.1234,2.1376,2.1378,2.1379,2.1341,2.134,2.1339,0,0,0,0,0,2.0686,2.0719,2.0736,2.0754,2.0865,2.0934,2.0949,2.0998,2.1002,2.102,2.1069,2.1095,2.1225,2.1213,2.1231,2.1247,2.1376,2.1377,2.1379,2.1341,2.134,2.1339,0,0,0,0,0,0,2.0638,2.073,2.075,2.0809,2.0863,2.0944,2.0969,2.0995,2.1049,2.1051,2.111,2.1127,2.1182,2.1221,2.1206,2.1295,2.1303,2.1307,2.1268,2.1267,2.1266,2.1256,2.1239,0,0,0,0,0,2.0634,2.0682,2.076,2.0805,2.0831,2.0895,2.0927,2.096,2.1018,2.1042,2.1095,2.115,2.1204,2.1238,2.1291,2.1346,2.1364,2.1366,2.1365,2.1364,2.1368,2.1399,2.1401,2.1384,2.1384,2.1384,0,0,2.0627,2.0683,2.071,2.0797,2.0843,2.0891,2.0914,2.0964,2.1001,2.1049,2.111,2.115,2.1216,2.1274,2.1302,2.1308,2.1376,2.1366,2.1364,2.1369,2.1401,2.1402,2.1404,2.1384,2.1384,2.1384,0,0,2.0638,2.0686,2.0728,2.0773,2.0842,2.0884,2.0894,2.0971,2.0999,2.1061,2.1098,2.1142,2.1233,2.1278,2.1313,2.134,2.1366,2.1356,2.1351,2.1381,2.1382,2.1384,2.1393,2.1396,2.1359,2.1359,2.1359,0,2.062,2.0695,2.0746,2.0795,2.0832,2.0877,2.092,2.0962,2.1044,2.1069,2.1074,2.1188,2.1236,2.1305,2.1311,2.1338,2.1351,2.1347,2.1378,2.138,2.1382,2.1392,2.1395,2.1358,2.1358,2.1358,2.1358,0,2.0669,2.072,2.0746,2.0824,2.0864,2.091,2.0968,2.1002,2.1031,2.1073,2.1134,2.1193,2.1259,2.1277,2.1307,2.135,2.1352,2.1367,2.1375,2.1381,2.1391,2.1396,2.1355,2.1356,2.1356,2.1357,0,0,2.0655,2.076,2.0769,2.0805,2.0883,2.0924,2.0971,2.1035,2.1063,2.1118,2.1159,2.1234,2.1248,2.1288,2.1323,2.1349,2.1367,2.1361,2.1364,2.136,2.1418,2.1406,2.141,2.1384,2.1385,2.1386,2.1412,0,2.0676,2.0763,2.081,2.0877,2.0925,2.0968,2.1009,2.1062,2.1101,2.1147,2.1192,2.1244,2.1259,2.1283,2.1311,2.1359,2.1379,2.1357,2.1423,2.1425,2.1405,2.1415,2.1403,2.1425,2.1417,2.1417,2.1418,0,2.0714,2.0768,2.0839,2.0912,2.0933,2.0969,2.1032,2.1075,2.1135,2.1163,2.1206,2.124,2.1292,2.1296,2.1367,2.1351,2.1381,2.1408,2.141,2.1418,2.1422,2.1424,2.1434,2.1437,2.1425,2.1424,2.1424,0,2.0695,2.0786,2.084,2.087,2.0956,2.098,2.1017,2.1077,2.1112,2.1167,2.119,2.125,2.1282,2.1327,2.1377,2.1376,2.1443,2.1452,2.1467,2.1466,2.148,2.1478,2.1494,2.1498,2.1498,2.1498,2.1498,0,2.0715,2.0757,2.0833,2.0866,2.0914,2.0968,2.1014,2.1055,2.1107,2.1149,2.1191,2.1229,2.1292,2.1338,2.1377,2.143,2.1444,2.1468,2.1478,2.1464,2.1461,2.1484,2.1484,2.1499,2.1499,2.1499,2.1498,0,2.0703,2.0756,2.0818,2.0894,2.0914,2.0946,2.1011,2.1045,2.1087,2.1139,2.1154,2.122,2.1276,2.133,2.1405,2.1432,2.1484,2.1497,2.1464,2.1469,2.1482,2.148,2.1514,2.1521,2.1519,2.1519,2.1519,0,2.0712,2.0745,2.0825,2.0855,2.0892,2.0941,2.0977,2.1031,2.1067,2.1137,2.1163,2.1222,2.1272,2.136,2.1414,2.1472,2.1487,2.1495,2.1496,2.1481,2.1487,2.1485,2.1488,2.1494,2.1493,2.1493,2.1493,0,2.0722,2.0746,2.0797,2.0856,2.0898,2.0947,2.0998,2.1021,2.1084,2.1122,2.118,2.1219,2.1296,2.1354,2.1418,2.1457,2.1485,2.1492,2.1499,2.1486,2.1465,2.1476,2.1461,2.1491,2.1491,2.1492,2.1492,2.1492,2.0721,2.0752,2.0813,2.0867,2.0911,2.0957,2.0993,2.1038,2.1088,2.1154,2.1183,2.1241,2.1301,2.1389,2.1427,2.1474,2.148,2.149,2.1493,2.1494,2.1491,2.1457,2.1486,2.1486,2.1486,2.1486,2.1486,0,2.0733,2.0774,2.0824,2.0893,2.0936,2.0959,2.1016,2.105,2.1101,2.1154,2.1202,2.1268,2.1325,2.1383,2.1443,2.1469,2.1484,2.1483,2.1482,2.149,2.1482,2.147,2.147,2.147,2.147,2.147,2.147,2.147,2.0745,2.0799,2.083,2.0906,2.0947,2.1004,2.1035,2.1077,2.112,2.1192,2.1239,2.1276,2.1331,2.1395,2.1448,2.1464,2.1484,2.1479,2.1499,2.149,2.1491,2.1492,2.1481,2.1483,2.1483,2.1503,2.1503,2.1504]}]]